GW7654 Weather Reports


time (UTC)temp
C
wind
direction
speed
KPH
gust
KPH
rain 1hr
cm
rain 24hr
cm
rain mn
cm
humidity
%
barometer
mb
20260906125428 33 351 6.4 4.8 0.00 0.00 0.00 14 1011.5
20260906124928 33 48 6.4 9.7 0.00 0.00 0.00 14 1011.5
20260906124428 33 3 1.6 1.6 0.00 0.00 0.00 14 1011.5
20260906123928 33 98 1.6 1.6 0.00 0.00 0.00 14 1011.5
20260906123429 33 88 1.6 3.2 0.00 0.00 0.00 16 1011.5
20260906122928 33 26 8.0 11.3 0.00 0.00 0.00 16 1011.5
20260906122428 33 38 4.8 4.8 0.00 0.00 0.00 16 1011.5
20260906121928 32 28 1.6 1.6 0.00 0.00 0.00 17 1011.5
20260906121428 32 358 8.0 11.3 0.00 0.00 0.00 17 1011.9
20260906120928 33 17 8.0 12.9 0.00 0.00 0.00 17 1011.5
20260906120429 33 2 8.0 16.1 0.00 0.00 0.00 16 1011.9
20260906115928 33 42 3.2 4.8 0.00 0.00 0.00 16 1011.5
20260906115429 33 65 3.2 4.8 0.00 0.00 0.00 16 1011.9
20260906114928 33 4 6.4 8.0 0.00 0.00 0.00 17 1011.5
20260906114429 33 66 4.8 8.0 0.00 0.00 0.00 18 1011.5
20260906113929 32 109 4.8 4.8 0.00 0.00 0.00 19 1011.9
20260906113429 32 70 4.8 4.8 0.00 0.00 0.00 20 1011.9
20260906112928 33 175 3.2 3.2 0.00 0.00 0.00 19 1011.9
20260906112428 33 108 1.6 1.6 0.00 0.00 0.00 20 1011.9
20260906111929 33 66 4.8 4.8 0.00 0.00 0.00 22 1011.9
20260906111428 32 197 0.0 0.0 0.00 0.00 0.00 22 1011.9
20260906110932 32 85 4.8 4.8 0.00 0.00 0.00 23 1011.9
20260906110428 32 82 3.2 3.2 0.00 0.00 0.00 23 1011.9
20260906105931 32 187 0.0 0.0 0.00 0.00 0.00 23 1011.9
20260906105428 32 198 6.4 8.0 0.00 0.00 0.00 23 1012.2
20260906104929 32 191 6.4 8.0 0.00 0.00 0.00 24 1012.2
20260906104429 32 200 6.4 8.0 0.00 0.00 0.00 23 1011.9
20260906103929 31 212 4.8 4.8 0.00 0.00 0.00 26 1012.2
20260906103429 31 246 3.2 4.8 0.00 0.00 0.00 25 1011.9
20260906102929 31 224 4.8 4.8 0.00 0.00 0.00 29 1011.9
20260906102428 31 120 4.8 4.8 0.00 0.00 0.00 30 1012.2
20260906101930 31 70 8.0 9.7 0.00 0.00 0.00 30 1012.5
20260906101428 30 116 3.2 3.2 0.00 0.00 0.00 32 1012.2
20260906100929 31 83 6.4 12.9 0.00 0.00 0.00 31 1012.5
20260906100429 30 62 4.8 4.8 0.00 0.00 0.00 32 1012.5
20260906095929 30 74 3.2 8.0 0.00 0.00 0.00 33 1012.5
20260906095432 30 204 1.6 1.6 0.00 0.00 0.00 33 1012.5
20260906094928 30 173 4.8 8.0 0.00 0.00 0.00 34 1012.5
20260906094430 30 267 3.2 3.2 0.00 0.00 0.00 34 1012.5
20260906093928 30 85 1.6 3.2 0.00 0.00 0.00 35 1012.9
20260906093431 29 90 3.2 3.2 0.00 0.00 0.00 35 1012.9
20260906092929 30 111 3.2 4.8 0.00 0.00 0.00 35 1012.9
20260906092428 29 223 3.2 3.2 0.00 0.00 0.00 36 1012.9
20260906091931 28 245 1.6 1.6 0.00 0.00 0.00 36 1012.9
20260906091428 28 153 4.8 8.0 0.00 0.00 0.00 35 1013.2
20260906090928 28 165 6.4 8.0 0.00 0.00 0.00 36 1012.9
20260906090430 28 258 1.6 1.6 0.00 0.00 0.00 37 1013.2
20260906085929 28 143 6.4 8.0 0.00 0.00 0.00 36 1012.9
20260906085428 28 187 3.2 4.8 0.00 0.00 0.00 37 1013.2
20260906084929 28 306 1.6 1.6 0.00 0.00 0.00 37 1012.9
20260906084428 27 230 3.2 3.2 0.00 0.00 0.00 38 1013.2
20260906083929 28 191 11.3 12.9 0.00 0.00 0.00 37 1013.2
20260906083428 28 294 1.6 1.6 0.00 0.00 0.00 37 1013.2
20260906082928 28 147 0.0 0.0 0.00 0.00 0.00 38 1013.2
20260906082429 27 198 3.2 3.2 0.00 0.00 0.00 40 1013.2
20260906081928 27 194 3.2 3.2 0.00 0.00 0.00 41 1013.5
20260906081429 27 242 4.8 4.8 0.00 0.00 0.00 41 1013.5
20260906080928 27 160 3.2 1.6 0.00 0.00 0.00 41 1013.5
20260906080428 27 158 4.8 4.8 0.00 0.00 0.00 42 1013.5
20260906075928 27 142 8.0 11.3 0.00 0.00 0.00 42 1013.5
20260906075428 27 166 1.6 1.6 0.00 0.00 0.00 43 1013.5
20260906074928 27 215 1.6 0.0 0.00 0.00 0.00 44 1013.5
20260906074428 27 202 8.0 9.7 0.00 0.00 0.00 43 1013.9
20260906073929 26 57 0.0 0.0 0.00 0.00 0.00 45 1013.5
20260906073429 26 103 6.4 8.0 0.00 0.00 0.00 45 1013.5
20260906072929 26 212 1.6 1.6 0.00 0.00 0.00 46 1013.5
20260906072429 26 125 1.6 1.6 0.00 0.00 0.00 45 1013.5
20260906071928 26 216 1.6 1.6 0.00 0.00 0.00 45 1013.5
20260906071429 26 212 1.6 1.6 0.00 0.00 0.00 46 1013.5
20260906070928 25 156 0.0 0.0 0.00 0.00 0.00 47 1013.5
20260906070428 25 197 3.2 3.2 0.00 0.00 0.00 48 1013.5
20260906065928 25 178 3.2 3.2 0.00 0.00 0.00 48 1013.9
20260906065428 25 180 1.6 1.6 0.00 0.00 0.00 49 1013.9
20260906064929 25 202 1.6 3.2 0.00 0.00 0.00 50 1013.9
20260906064428 25 210 3.2 4.8 0.00 0.00 0.00 50 1013.5
20260906063928 26 164 1.6 0.0 0.00 0.00 0.00 48 1013.9
20260906063428 26 106 1.6 1.6 0.00 0.00 0.00 47 1013.9
20260906062928 26 101 3.2 3.2 0.00 0.00 0.00 45 1013.5
20260906062430 25 80 3.2 3.2 0.00 0.00 0.00 46 1013.5
20260906061928 25 148 1.6 1.6 0.00 0.00 0.00 45 1013.5
20260906061428 25 199 3.2 3.2 0.00 0.00 0.00 44 1013.9
20260906060931 25 221 3.2 4.8 0.00 0.00 0.00 44 1013.5
20260906060429 26 120 1.6 3.2 0.00 0.00 0.00 43 1013.5
20260906055929 25 143 0.0 0.0 0.00 0.00 0.00 45 1013.5
20260906055429 25 128 1.6 1.6 0.00 0.00 0.00 45 1013.9
20260906054928 25 84 4.8 4.8 0.00 0.00 0.00 47 1013.5
20260906054428 25 190 1.6 1.6 0.00 0.00 0.00 48 1013.9
20260906053929 24 156 0.0 0.0 0.00 0.00 0.00 49 1013.5
20260906053433 24 180 1.6 1.6 0.00 0.00 0.00 50 1013.9
20260906052928 23 201 0.0 0.0 0.00 0.00 0.00 51 1013.9
20260906052429 23 221 1.6 1.6 0.00 0.00 0.00 51 1013.5
20260906051928 23 173 1.6 1.6 0.00 0.00 0.00 53 1013.5
20260906051428 23 105 1.6 1.6 0.00 0.00 0.00 55 1013.5
20260906050929 23 218 0.0 0.0 0.00 0.00 0.00 55 1013.5
20260906050429 23 100 0.0 0.0 0.00 0.00 0.00 54 1013.5
20260906045928 23 80 1.6 1.6 0.00 0.00 0.00 55 1013.5
20260906045428 23 100 1.6 1.6 0.00 0.00 0.00 56 1013.5
20260906044928 22 85 0.0 0.0 0.00 0.00 0.00 56 1013.5
20260906044429 22 71 0.0 0.0 0.00 0.00 0.00 57 1013.5
20260906043929 22 84 3.2 4.8 0.00 0.00 0.00 58 1013.5
20260906043432 22 15 0.0 0.0 0.00 0.00 0.00 58 1013.9
20260906042929 22 86 1.6 1.6 0.00 0.00 0.00 58 1013.5
20260906042428 22 87 0.0 0.0 0.00 0.00 0.00 60 1013.5
20260906041928 21 81 0.0 0.0 0.00 0.00 0.00 59 1013.5
20260906041428 21 45 0.0 0.0 0.00 0.00 0.00 61 1013.5
20260906040928 21 150 0.0 0.0 0.00 0.00 0.00 62 1013.5
20260906040428 21 150 0.0 0.0 0.00 0.00 0.00 60 1013.5
20260906035929 21 152 0.0 0.0 0.00 0.00 0.00 59 1013.5
20260906035428 21 91 1.6 1.6 0.00 0.00 0.00 61 1013.5
20260906034928 20 31 0.0 1.6 0.00 0.00 0.00 62 1013.5
20260906034431 20 27 0.0 0.0 0.00 0.00 0.00 62 1013.2
20260906033928 20 282 1.6 0.0 0.00 0.00 0.00 62 1013.2
20260906033428 19 281 0.0 0.0 0.00 0.00 0.00 63 1013.5
20260906032929 19 25 0.0 0.0 0.00 0.00 0.00 63 1013.2
20260906032428 19 25 0.0 0.0 0.00 0.00 0.00 64 1013.2
20260906031928 18 25 0.0 0.0 0.00 0.00 0.00 64 1013.2
20260906031429 19 89 0.0 0.0 0.00 0.00 0.00 65 1013.2
20260906030928 18 103 0.0 0.0 0.00 0.00 0.00 67 1012.9
20260906030428 18 104 0.0 0.0 0.00 0.00 0.00 68 1012.9
20260906025928 19 100 0.0 0.0 0.00 0.00 0.00 69 1013.2
20260906025430 19 89 0.0 0.0 0.00 0.00 0.00 66 1012.9
20260906024930 20 134 0.0 0.0 0.00 0.00 0.00 60 1012.9
20260906024427 20 90 0.0 0.0 0.00 0.00 0.00 54 1013.2
20260906023928 20 87 0.0 0.0 0.00 0.00 0.00 54 1012.9
20260906023428 20 90 3.2 3.2 0.00 0.00 0.00 50 1012.9
20260906022929 20 281 0.0 0.0 0.00 0.00 0.00 50 1012.9
20260906022429 20 279 0.0 0.0 0.00 0.00 0.00 50 1012.9
20260906021928 20 280 0.0 0.0 0.00 0.00 0.00 49 1012.5
20260906021429 20 280 1.6 1.6 0.00 0.00 0.00 49 1012.9
20260906020928 20 286 1.6 1.6 0.00 0.00 0.00 50 1012.9
20260906020428 20 74 0.0 0.0 0.00 0.00 0.00 53 1012.5
20260906015928 20 76 0.0 0.0 0.00 0.00 0.00 53 1012.9
20260906015429 20 75 0.0 0.0 0.00 0.00 0.00 53 1012.5
20260906014928 20 75 0.0 0.0 0.00 0.00 0.00 51 1012.9
20260906014428 20 75 0.0 0.0 0.00 0.00 0.00 52 1012.5
20260906013928 20 75 0.0 0.0 0.00 0.00 0.00 53 1012.5
20260906013428 20 75 0.0 0.0 0.00 0.00 0.00 53 1012.5
20260906012928 20 76 0.0 0.0 0.00 0.00 0.00 52 1012.5
20260906012428 20 75 0.0 0.0 0.00 0.00 0.00 53 1012.5
20260906011928 20 75 0.0 0.0 0.00 0.00 0.00 52 1012.5
20260906011428 21 80 0.0 0.0 0.00 0.00 0.00 52 1012.5
20260906010931 21 79 0.0 0.0 0.00 0.00 0.00 51 1012.5
20260906010429 21 300 0.0 0.0 0.00 0.00 0.00 51 1012.5
20260906005930 21 300 0.0 0.0 0.00 0.00 0.00 52 1012.9
20260906005428 21 303 1.6 1.6 0.00 0.00 0.00 52 1012.5
20260906004928 21 292 1.6 1.6 0.00 0.00 0.00 51 1012.5
20260906004430 21 277 1.6 1.6 0.00 0.00 0.00 52 1012.5
20260906003928 21 276 0.0 0.0 0.00 0.00 0.00 52 1012.5
20260906003428 21 276 1.6 1.6 0.00 0.00 0.00 53 1012.5
20260906002928 21 255 0.0 0.0 0.00 0.00 0.00 53 1012.9
20260906002428 21 245 1.6 1.6 0.00 0.00 0.00 53 1012.5
20260906001928 21 145 0.0 0.0 0.00 0.00 0.00 53 1012.9
20260906001428 21 145 0.0 0.0 0.00 0.00 0.00 53 1012.5
20260906000928 21 145 0.0 0.0 0.00 0.00 0.00 53 1012.9
20260906000428 21 75 0.0 0.0 0.00 0.00 0.00 53 1012.9
20260905235929 21 75 0.0 0.0 0.00 0.00 0.00 53 1012.9
20260905235428 21 74 0.0 0.0 0.00 0.00 0.00 53 1012.9
20260905234928 21 75 0.0 0.0 0.00 0.00 0.00 52 1012.9
20260905234428 21 75 0.0 0.0 0.00 0.00 0.00 52 1012.9
20260905233929 21 75 0.0 0.0 0.00 0.00 0.00 51 1012.9
20260905233428 22 75 0.0 0.0 0.00 0.00 0.00 50 1012.9
20260905232928 21 297 1.6 1.6 0.00 0.00 0.00 50 1012.9
20260905232429 21 288 0.0 0.0 0.00 0.00 0.00 49 1012.9
20260905231928 21 288 0.0 0.0 0.00 0.00 0.00 50 1012.5
20260905231429 21 284 0.0 0.0 0.00 0.00 0.00 50 1012.9
20260905230928 21 284 1.6 1.6 0.00 0.00 0.00 51 1012.9
20260905230428 21 283 3.2 1.6 0.00 0.00 0.00 51 1012.9
20260905225928 21 255 1.6 1.6 0.00 0.00 0.00 51 1012.9
20260905225428 21 240 1.6 1.6 0.00 0.00 0.00 52 1012.5
20260905224928 21 214 0.0 0.0 0.00 0.00 0.00 51 1012.5
20260905224428 22 109 0.0 0.0 0.00 0.00 0.00 51 1012.9
20260905223928 22 92 0.0 0.0 0.00 0.00 0.00 50 1012.9
20260905223428 22 92 0.0 0.0 0.00 0.00 0.00 50 1012.9
20260905222928 22 92 0.0 0.0 0.00 0.00 0.00 49 1012.9
20260905222429 22 92 0.0 0.0 0.00 0.00 0.00 49 1012.9
20260905221928 22 70 1.6 1.6 0.00 0.00 0.00 50 1012.9
20260905221428 22 285 0.0 0.0 0.00 0.00 0.00 50 1012.9
20260905220928 22 230 3.2 1.6 0.00 0.00 0.00 51 1012.9
20260905220428 22 150 1.6 1.6 0.00 0.00 0.00 51 1012.9
20260905215928 22 147 0.0 0.0 0.00 0.00 0.00 51 1013.2
20260905215430 22 146 0.0 0.0 0.00 0.00 0.00 50 1013.2
20260905214929 22 147 0.0 0.0 0.00 0.00 0.00 50 1013.2
20260905214429 22 146 0.0 0.0 0.00 0.00 0.00 50 1012.9
20260905213929 22 146 0.0 0.0 0.00 0.00 0.00 50 1013.2
20260905213428 22 146 0.0 0.0 0.00 0.00 0.00 49 1013.2
20260905212929 23 146 0.0 0.0 0.00 0.00 0.00 49 1013.2
20260905212429 23 146 0.0 0.0 0.00 0.00 0.00 48 1013.2
20260905211929 23 146 0.0 0.0 0.00 0.00 0.00 49 1013.2
20260905211429 23 146 0.0 0.0 0.00 0.00 0.00 49 1013.5
20260905210928 23 146 0.0 0.0 0.00 0.00 0.00 49 1013.5
20260905210429 23 146 0.0 0.0 0.00 0.00 0.00 49 1013.5
20260905205928 23 145 0.0 0.0 0.00 0.00 0.00 48 1013.5
20260905205428 23 146 0.0 0.0 0.00 0.00 0.00 48 1013.5
20260905204928 23 146 0.0 0.0 0.00 0.00 0.00 48 1013.5
20260905204428 23 141 0.0 0.0 0.00 0.00 0.00 49 1013.5
20260905203929 23 140 0.0 0.0 0.00 0.00 0.00 48 1013.5
20260905203428 23 140 1.6 1.6 0.00 0.00 0.00 48 1013.5
20260905202929 23 124 0.0 0.0 0.00 0.00 0.00 48 1013.5
20260905202428 23 124 0.0 0.0 0.00 0.00 0.00 47 1013.5
20260905201930 23 124 0.0 0.0 0.00 0.00 0.00 47 1013.5
20260905201429 23 123 0.0 0.0 0.00 0.00 0.00 47 1013.5
20260905200928 23 123 0.0 0.0 0.00 0.00 0.00 47 1013.5
20260905200428 23 123 0.0 0.0 0.00 0.00 0.00 47 1013.5
20260905195929 23 123 0.0 0.0 0.00 0.00 0.00 47 1013.9
20260905195428 23 103 0.0 0.0 0.00 0.00 0.00 46 1013.5
20260905194930 23 103 0.0 0.0 0.00 0.00 0.00 47 1013.5
20260905194428 23 132 1.6 1.6 0.00 0.00 0.00 47 1013.5
20260905193929 23 137 0.0 0.0 0.00 0.00 0.00 47 1013.5
20260905193428 24 92 1.6 1.6 0.00 0.00 0.00 46 1013.5
20260905192928 24 58 0.0 0.0 0.00 0.00 0.00 46 1013.5
20260905192428 25 58 0.0 0.0 0.00 0.00 0.00 45 1013.5
20260905191928 25 85 0.0 0.0 0.00 0.00 0.00 44 1013.5
20260905191428 25 85 0.0 0.0 0.00 0.00 0.00 45 1013.5
20260905190928 25 85 0.0 0.0 0.00 0.00 0.00 45 1013.5
20260905190429 25 84 0.0 0.0 0.00 0.00 0.00 44 1013.2
20260905185928 25 84 1.6 1.6 0.00 0.00 0.00 44 1013.5
20260905185428 25 85 1.6 1.6 0.00 0.00 0.00 44 1013.9
20260905184928 25 40 0.0 0.0 0.00 0.00 0.00 45 1013.5
20260905184428 25 6 0.0 0.0 0.00 0.00 0.00 46 1013.2
20260905183930 25 6 0.0 1.6 0.00 0.00 0.00 46 1013.5
20260905183428 25 8 1.6 0.0 0.00 0.00 0.00 46 1013.5
20260905182928 25 11 0.0 0.0 0.00 0.00 0.00 46 1013.9
20260905182428 25 11 0.0 0.0 0.00 0.00 0.00 46 1013.5
20260905181929 25 11 0.0 0.0 0.00 0.00 0.00 46 1013.9
20260905181428 25 11 0.0 0.0 0.00 0.00 0.00 46 1013.5
20260905180928 25 3 3.2 3.2 0.00 0.00 0.00 45 1013.9
20260905180428 25 350 1.6 1.6 0.00 0.00 0.00 45 1013.5
20260905175929 25 18 1.6 1.6 0.00 0.00 0.00 44 1013.5
20260905175429 25 8 1.6 1.6 0.00 0.00 0.00 44 1013.9
20260905174928 26 82 0.0 1.6 0.00 0.00 0.00 43 1013.9
20260905174428 25 85 1.6 1.6 0.00 0.00 0.00 44 1013.5
20260905173928 25 94 0.0 0.0 0.00 0.00 0.00 44 1013.5
20260905173428 25 128 0.0 0.0 0.00 0.00 0.00 44 1013.5
20260905172928 25 144 0.0 0.0 0.00 0.00 0.00 44 1013.5
20260905172429 25 147 0.0 0.0 0.00 0.00 0.00 44 1013.5
20260905171928 25 147 0.0 0.0 0.00 0.00 0.00 44 1013.5
20260905171428 26 155 0.0 0.0 0.00 0.00 0.00 44 1013.5
20260905170929 26 145 0.0 0.0 0.00 0.00 0.00 43 1013.2
20260905170428 26 206 1.6 1.6 0.00 0.00 0.00 43 1013.2
20260905165929 26 191 3.2 4.8 0.00 0.00 0.00 43 1013.2
20260905165428 26 215 1.6 3.2 0.00 0.00 0.00 42 1013.2
20260905164928 26 202 1.6 1.6 0.00 0.00 0.00 42 1013.2
20260905164429 26 160 6.4 8.0 0.00 0.00 0.00 41 1013.2
20260905163928 26 217 1.6 1.6 0.00 0.00 0.00 40 1012.9
20260905163428 26 211 3.2 3.2 0.00 0.00 0.00 40 1012.9
20260905162928 26 207 1.6 3.2 0.00 0.00 0.00 40 1012.9
20260905162429 26 200 9.7 11.3 0.00 0.00 0.00 40 1012.9
20260905161928 27 195 6.4 8.0 0.00 0.00 0.00 41 1012.9
20260905161432 27 215 4.8 8.0 0.00 0.00 0.00 41 1012.9
20260905160929 27 199 4.8 4.8 0.00 0.00 0.00 41 1012.9
20260905160428 27 253 4.8 4.8 0.00 0.00 0.00 41 1012.9
20260905155928 27 237 3.2 3.2 0.00 0.00 0.00 40 1012.5
20260905155428 27 239 6.4 8.0 0.00 0.00 0.00 40 1012.9
20260905154929 27 176 8.0 11.3 0.00 0.00 0.00 40 1012.9
20260905154428 28 234 8.0 9.7 0.00 0.00 0.00 40 1012.5
20260905153928 28 169 6.4 9.7 0.00 0.00 0.00 40 1012.5
20260905153428 28 161 8.0 9.7 0.00 0.00 0.00 39 1012.5
20260905152929 28 201 8.0 11.3 0.00 0.00 0.00 38 1012.5
20260905152428 29 185 9.7 12.9 0.00 0.00 0.00 37 1012.9
20260905151928 29 223 1.6 1.6 0.00 0.00 0.00 35 1012.9
20260905151429 29 189 6.4 9.7 0.00 0.00 0.00 34 1012.5
20260905150928 30 230 6.4 8.0 0.00 0.00 0.00 34 1012.5
20260905150428 30 212 9.7 12.9 0.00 0.00 0.00 33 1012.5
20260905145930 30 234 9.7 12.9 0.00 0.00 0.00 33 1012.5
20260905145429 30 193 6.4 8.0 0.00 0.00 0.00 31 1012.5
20260905144928 30 199 6.4 8.0 0.00 0.00 0.00 30 1012.5
20260905144429 30 223 4.8 4.8 0.00 0.00 0.00 29 1012.5
20260905143928 31 200 8.0 11.3 0.00 0.00 0.00 28 1012.5
20260905143429 31 170 6.4 8.0 0.00 0.00 0.00 27 1012.5
20260905142928 31 257 8.0 11.3 0.00 0.00 0.00 28 1012.5
20260905142428 31 201 11.3 16.1 0.00 0.00 0.00 26 1012.2
20260905141929 31 220 4.8 4.8 0.00 0.00 0.00 25 1012.5
20260905141428 31 130 11.3 12.9 0.00 0.00 0.00 25 1012.2
20260905140928 32 257 4.8 8.0 0.00 0.00 0.00 24 1012.5
20260905140430 32 237 9.7 12.9 0.00 0.00 0.00 23 1012.2
20260905135929 32 189 12.9 14.5 0.00 0.00 0.00 22 1012.2
20260905135429 33 163 6.4 8.0 0.00 0.00 0.00 18 1012.5
20260905134929 33 239 4.8 8.0 0.00 0.00 0.00 17 1012.2
20260905134428 33 210 1.6 3.2 0.00 0.00 0.00 17 1012.2
20260905133928 32 220 1.6 1.6 0.00 0.00 0.00 17 1012.2
20260905133428 33 213 4.8 4.8 0.00 0.00 0.00 17 1012.2
20260905132928 33 213 4.8 9.7 0.00 0.00 0.00 16 1012.5
20260905132428 33 215 1.6 1.6 0.00 0.00 0.00 16 1012.2
20260905131929 33 197 4.8 8.0 0.00 0.00 0.00 16 1012.5
20260905131428 33 162 4.8 4.8 0.00 0.00 0.00 16 1012.5
20260905130930 33 117 8.0 16.1 0.00 0.00 0.00 15 1012.2
20260905130429 33 164 1.6 1.6 0.00 0.00 0.00 14 1012.5
20260905125928 32 114 4.8 8.0 0.00 0.00 0.00 14 1012.2